Weather in Sartynya

Russia / Khanty-Mansi Autonomous Okrug — Yugra     63°28′18″N   63°23′28″E
temp.,
°C
wind,
m/s
gust,
m/s
humid.,
%
clouds,
%
prec.,
mm/h
press.,
hPa
HPBL,
m
16 may, sun
sun1623:00+8ne388198 0.0 1015328
02:00+6nne258322 0.0 1016233
05:00+5ne258152 0.0 1016239
08:00+8nne226999 0.0 1017510
11:00+14nnw0153100 0.0 1016880
14:00+16wsw1247100 0.0 10151148
17:00+12n247099 0.2 1015106
20:00+10e3687100 0.8 1013297
17 may, mon
mon1723:00+9ene3887100 0.9 1012319
02:00+7ene3694100 0.1 1011211
05:00+7nne359399 0.1 1011197
08:00+10ne228163 0.0 1011362
11:00+12ne2274100 0.1 1010541
14:00+11ne3478100 0.1 1010366
17:00+7ne4690100 0.6 1011315
20:00+6nne4995100 5.6 1011390
18 may, tue
tue1823:00+5nne41095100 6.1 1013478
02:00+5nne51193100 0.6 1015600
05:00+3nne51184100 0.8 1018458
08:00+5nne477126 0.0 1021548
11:00+9nne45535 0.0 10231004
14:00+11n343893 0.0 10241334
17:00+12n343277 0.0 10241359
20:00+10ne244160 0.0 1025277
19 may, wed
wed1923:00+5e22585 0.0 102626
02:00+4ese115688 0.0 102611
05:00+4sse125530 0.0 102740
08:00+10ssw344076 0.0 1026424
11:00+15sw353980 0.0 1023995
14:00+19sw453518 0.0 10211536
17:00+20wsw4634100 0.0 10191636
20:00+18wsw274316 0.0 1017181
20 may, thu
thu2023:00+13wsw256398 0.0 101682
02:00+12wsw21073100 0.0 1015182
05:00+12wsw3127438 0.0 1014258
08:00+20wsw5125089 0.0 1012457
11:00+26w6103839 0.0 10111261
14:00+30wnw6112259 0.0 10102847
17:00+29wnw593121 0.0 10112792
20:00+26w5113380 0.0 1010609